User: anonymous   Login
Location: *
(43.6428°N, 11.5461°E)
Time: 04:56:52
(UTC+00:00)
Language:

Cosmos 1939 Rocket - Orbit

View from above orbital plane
View from above orbital plane
View from above satellite
View from above satellite

Ground track
Ground track

The orbit data is extracted from the following two-line orbital elements,

1 19046U 88032B   19345.81292343  .00000312  00000-0  27383-4 0  9998
2 19046  97.4218  10.0699 0039103 127.5302 232.9488 15.02655153708929
Epoch (UTC): 11 December 2019 19:30:36
Eccentricity: 0.0039103
inclination: 97.4218°
perigee height: 531 km
apogee height: 586 km
right ascension of ascending node: 10.0699°
argument of perigee: 127.5302°
revolutions per day: 15.02655153
mean anomaly at epoch: 232.9488°
orbit number at epoch: 70892

The dashed part of the orbit path shows where the satellite is in the earth's shadow,  

DLR